STARLINK-2193, 47770

Orbit data source: Space-Track

STARLINK-2193, 47770 is a payload satellite owned by SpaceX/Seattle (US) in LEO that was launched on Thu, 04 Mar 2021 UTC via an FALCON 9 launch vehicle from the Air Force Eastern Test Range (AFETR). Payload-class satellites include a variety of spacecraft equipped with specific instruments for various scientific and technological missions. These include communications satellites like Starlink; space stations such as the ISS; scientific satellites like the Hubble; Earth observation satellites from companies like Planet Labs, Umbra, and HawkEye 360; GPS; miniature CubeSats for education and research; and military/defense satellites.

Loading next visibility...
Identifier
47770, 2021-017BA
Orbit
LEO
Country
Flag of USUS
Related business
Manufacturer
SpaceX/Seattle
Mission
Operational Commercial Communications
Bus & Motor
STARLINK, Unknown motor
Mass
260 kg wet, ~248 kg dry
Launch date (UTC)
2021-03-04 (5 years ago)
Launch vehicle
FALCON 9
Launch site
Air Force Eastern Test Range (AFETR)
Object type
Payload
Rocket body
Debris
Shape & HBR
Box + 1 Pan, 10.1 m
Radar Cross Section
13.562 m², Large (>1 m²)

Expand to show TLE details & history
Last TLE update: 2 days ago

TLE from 2 days ago
0 STARLINK-2193
1 47770U 21017BA  26170.95827293 -.00000423  00000-0 -18481-5 0  9995
2 47770  53.1610  88.1457 0001358  77.0672 283.0482 15.31695462293533
Epoch: 2026-06-19T22:59Z
TLE epoch observation values (Epoch: 2026-06-19T22:59:54.781Z)
Latitude
0.00007°
Longitude
-165.01228°
Altitude
471.444 km
Speed
7.632 km/s
True Right ascension
05h 52m 34s
True Declination
0° 00' 00"
Sunlit
Object was in daylight at epoch
Visualization orbit readout
Latitude
Unknown
Longitude
Unknown
Altitude
Unknown
Speed
Unknown
Apparent Right ascension
Unknown
Apparent Declination
Unknown
Sunlit
N/A
Visualization observer readout
Local Sidereal Time
21:36:08
Azimuth
Unknown
Elevation
Unknown
Doppler factor
Unknown
Orbital elements
Apogee altitude
471.94 km
Perigee altitude
470.08 km
Semi-major axis
6,849.147 km
Eccentricity
0.00014
Inclination
53.161°
RAAN
88.1457°
Arg. of periapsis
77.0672°
True anomaly
283.03304°
Mean anomaly
283.0482°
Eccentric anomaly
283.04062°
Mean motion
3.82903 °/min
Orbital period
94.02 mins
BSTAR
-0.0000018481
Loading maneuver chart data...
Computing Atmospheric mass density...

Documentation

Showing up to 5 results
|